Location: Bemmer
(51.5498°N, 5.6249°E)
Time: 12:32:18
(UTC+00:00)

Gbstr 26 Del rocket - Pass Details

Date: 03 March 2021
Orbit: 492 x 1264 km, 51.8° (Epoch: 16 April)

Event Time Altitude Azimuth Distance (km) Brightness Sun altitude
Rises 18:07:12 0° 254° (WSW) 2,735 8.2 -7.9°
Reaches altitude 10° 18:09:16 10° 254° (WSW) 1,913 7.0 -8.2°
Maximum altitude 18:13:36 83° 167° (SSE) 679 3.2 -8.9°
Enters shadow 18:18:36 12° 80° (E) 2,206 5.2 -9.7°
